Lid_Strength_Index
13 16 17 14 14 14 17 18 18 15 14 15 15 14 13 11 11 12 11 10 9 9 8 8 9 9 9 10 10 11 11 11 11 12 13 13 12 13 14 13 14 14 14 15
15 17 13 14 15 15 15 16 16 14 13 16 15 15 13 12 12 11 10 10 10 9 8 8 10 11 10 10 10 10 11 11 11 11 11 12 12 13 13 14 15 14 15 15
15 14 13 14 15 16 17 17 16 16 15 16 17 16 15 13 12 11 10 10 10 10 10 8 9 12 10 10 10 10 11 11 11 11 11 15 15 16 16 16 15 15 15 16
15 13 14 15 15 15 16 14 15 15 17 18 17 20 17 15 15 13 12 11 11 10 10 10 9 12 11 10 10 10 11 11 11 11 12 12 13 14 14 14 14 15 15 16
16 15 16 16 14 14 15 14 15 16 18 19 19 20 18 15 16 14 12 11 10 10 11 10 10 11 12 11 11 11 11 12 11 12 12 12 12 13 15 16 16 15 16 15
15 14 14 14 14 14 14 16 16 18 19 21 17 18 18 18 15 14 13 12 11 11 10 11 12 12 12 13 12 12 12 12 12 12 12 12 13 14 16 16 16 16 16 16
17 16 15 14 16 15 15 17 21 22 23 20 18 19 16 15 13 13 12 11 11 11 11 12 12 13 13 13 13 13 13 13 12 13 13 13 13 14 14 15 15 16 16 16
19 18 16 15 14 15 16 16 20 25 22 18 19 21 15 13 13 12 12 12 12 12 12 11 12 12 13 13 13 13 14 14 13 13 13 13 13 14 14 14 14 15 15 15
18 18 16 15 14 14 17 18 15 19 26 23 17 17 13 13 14 13 13 13 13 13 13 13 13 13 13 13 14 14 14 13 13 13 13 13 13 13 13 14 14 15 15 16
15 17 16 17 16 15 15 15 18 18 22 24 19 19 17 15 13 12 13 12 12 12 13 13 13 13 13 13 14 14 14 13 13 13 12 13 13 13 13 14 14 15 16 16
12 13 15 14 16 15 16 16 16 15 16 18 20 17 11 12 10 11 12 12 12 12 12 13 13 13 13 13 14 14 14 14 14 13 13 13 13 13 14 14 15 15 16 17
11 12 16 15 11 12 13 14 13 15 17 16 16 16 10 9 9 10 10 11 12 12 12 12 12 12 12 13 14 14 14 14 13 13 13 14 14 15 14 15 15 16 16 17
10 13 17 16 14 14 14 12 11 12 13 17 19 17 10 9 9 8 9 10 12 12 11 11 11 11 12 12 13 13 13 13 13 14 14 15 15 15 15 15 15 16 17 17
8 12 15 18 15 12 14 13 12 13 16 16 15 13 11 9 9 8 8 8 8 8 10 11 11 11 11 12 12 12 13 12 13 14 14 14 14 15 14 14 16 17 17 17
10 15 14 13 13 13 13 14 13 14 13 15 14 13 11 9 9 8 7 7 7 9 11 12 13 12 12 12 11 12 12 13 13 14 14 15 14 14 15 16 16 16 17 17
12 15 13 16 14 13 14 13 13 13 13 13 13 13 9 9 10 10 10 11 11 12 12 12 12 12 12 13 13 13 11 13 14 13 14 14 14 15 16 16 16 17 17 17
13 14 15 17 16 16 18 14 14 13 12 12 15 14 14 15 15 14 13 14 13 13 12 12 12 12 12 12 13 13 14 13 14 14 13 14 15 15 16 17 17 17 17 17
15 16 18 19 18 23 16 12 11 12 14 15 15 14 14 15 14 12 13 13 13 13 12 12 12 12 11 12 12 13 15 15 15 14 14 15 15 16 17 17 17 18 18 18
12 14 17 19 20 16 14 14 15 16 16 14 15 14 14 13 14 14 13 13 13 13 12 12 12 12 11 12 12 14 15 16 17 16 16 17 17 17 19 19 19 19 19 19
14 12 15 16 20 21 17 14 12 13 18 14 13 14 15 14 19 17 13 14 14 13 13 13 13 12 12 12 13 14 15 16 16 16 17 18 18 18 19 19 19 19 19 18
24 26 24 23 23 18 15 13 13 20 19 13 12 13 13 16 15 13 13 14 14 14 14 14 14 14 13 13 13 14 14 15 17 18 19 20 19 18 18 19 19 19 19 19
20 26 27 28 30 26 12 13 17 15 12 11 13 13 13 13 13 14 15 15 14 15 15 15 16 15 14 13 13 13 14 14 18 19 19 19 21 20 18 19 19 19 19 20
19 17 21 19 20 13 13 13 10 9 10 11 12 12 13 14 15 14 14 14 15 16 16 15 16 16 16 15 14 15 14 15 17 17 18 18 17 18 18 19 19 20 20 20
15 13 16 19 14 13 11 10 10 9 10 10 11 12 13 14 14 14 15 15 15 15 15 15 16 17 17 18 18 17 16 13 15 16 16 17 18 19 18 18 18 19 20 20
14 14 16 15 13 11 10 10 9 10 10 10 12 12 13 13 14 14 15 15 16 15 15 16 17 18 19 19 19 18 17 15 15 15 16 18 18 18 19 19 18 19 18 18
11 12 13 14 10 9 10 8 9 10 11 12 13 13 12 12 14 14 15 15 15 16 17 18 18 19 20 20 21 20 20 19 19 18 16 18 18 19 19 19 19 16 16 16